Tracking 25710 objects as of 5-Jul-2022
HD Live streaming from Space Station
objects crossing your sky now

ITALSAT 1

Track ITALSAT 1 now!
ITALSAT 1 is classified as:


NORAD ID: 21055
Int'l Code: 1991-003A
Perigee: 35,809.5 km
Apogee: 35,946.2 km
Inclination: 14.9 °
Period: 1,440.4 minutes
Semi major axis: 42248 km
RCS: 3.4358 m2 (large)
Launch date: January 15, 1991
Source: Italy (IT)
Launch site: FRENCH GUIANA (FRGUI)
aabbcc
Your satellite tracking list
Your tracking list is empty




NASA's NSSDC Master Catalog

Two Line Element Set (TLE):
1 21055U 91003A   22185.72798653  .00000008  00000-0  00000-0 0  9999
2 21055  14.8704   2.6624 0016169  43.5427 150.4891  0.99972500102650
Source of the keplerian elements: AFSPC